#timestamp,LO_Frequency,Hit,StdDev 
1510866015.7,286046995.1,N
1510866035.6,286046997.9,N
1510866055.4,286046995.2,N
1510866075.2,286046991.7,N
1510866095.1,286046991.2,N
1510866096.0,286046991.2,N
1510866115.8,286046988.3,Y
1510866135.6,286046991.6,P
1510866155.5,286046987.9,P
1510866175.3,286046987.9,P
1510866195.1,286046991.2,N
1510866215.9,286046992.3,N
1510866235.7,286046995.7,N
1510866255.5,286046996.0,N
1510866275.4,286046996.1,N
1510866295.2,286047003.6,N
1510866315.0,286046999.8,N
1510866315.9,286046999.8,N
1510866335.8,286047002.8,N
1510866355.6,286047006.1,N
1510866375.4,286047006.9,N
1510866395.3,286047008.6,N
1510866415.1,286047005.3,N
1510866416.0,286047005.3,N
1510866435.8,286047004.0,N
1510866455.6,286046998.2,N
1510866475.5,286047000.0,N
1510866495.3,286047004.9,N
1510866515.1,286047003.7,N
1510866535.9,286047009.0,N
1510866555.7,286047009.2,N
1510866575.5,286047004.3,N
1510866595.4,286047007.4,N
1510866615.2,286047008.7,N
1510866635.0,286047008.9,N
1510866635.9,286047008.9,N
1510866655.8,286047008.8,N
1510866675.6,286047009.6,N
1510866695.4,286047006.6,N
1510866715.3,286047013.1,N
1510866735.1,286047012.0,N
1510866736.0,286047012.0,N
1510866755.8,286047009.4,N
1510866775.6,286047008.0,N
1510866795.5,286047007.4,N
1510866815.3,286047010.8,N
1510866835.2,286047017.3,Y
1510866855.9,286047011.7,P
1510866875.7,286047015.5,P
1510866895.5,286047015.0,P
1510866915.4,286047015.3,Y
1510866935.2,286046997.5,P
1510866955.0,286046995.7,N
1510866956.0,286046995.7,N
1510866975.8,286046998.3,N
1510866995.6,286047000.0,N
1510867015.4,286047001.8,N
1510867035.3,286046996.6,N
1510867055.1,286046992.9,N
1510867075.8,286046986.4,N
1510867095.7,286046981.8,N
1510867115.5,286046980.0,N
1510867135.3,286046977.1,N
1510867155.2,286046970.9,Y
1510867175.9,286046978.1,P
1510867195.7,286046975.9,P
1510867215.6,286046983.1,N
1510867235.4,286046980.2,N
1510867255.2,286046977.1,Y
1510867275.1,286046995.3,P
1510867276.0,286046995.3,N
1510867295.8,286046994.9,N
1510867315.6,286046995.5,N
1510867335.5,286046993.5,N
1510867355.3,286046992.0,N
1510867375.1,286046988.5,N
1510867395.8,286046989.1,N
1510867415.7,286046989.0,N
1510867435.5,286046988.6,N
1510867455.3,286046993.5,N
1510867475.2,286046996.2,N
1510867495.9,286046993.7,N
1510867515.7,286046999.4,N
1510867535.6,286047011.8,N
1510867555.4,286047019.0,Y
1510867575.2,286047035.1,P
1510867595.1,286047032.6,N
1510867596.0,286047032.6,N
1510867615.8,286047028.9,N
1510867635.6,286047035.5,N
1510867655.5,286047047.3,Y
1510867675.3,286047025.4,P
1510867695.1,286047031.4,P
1510867715.9,286047034.7,P
1510867735.7,286047029.9,Y
1510867755.5,286046994.5,P
1510867775.4,286047003.8,N
1510867795.2,286047012.4,N
1510867815.0,286047009.1,N
1510867815.9,286047009.1,N
1510867835.8,286047016.9,N
1510867855.6,286047018.2,N
1510867875.4,286047016.0,N
1510867895.3,286047025.1,N
1510867915.1,286047020.0,N
1510867916.0,286047020.0,N
1510867935.8,286047025.5,N
1510867955.7,286047030.6,Y
1510867975.5,286047015.9,P
1510867995.3,286047014.4,P
1510868015.1,286047017.9,P
1510868035.9,286047023.5,Y
1510868055.7,286047005.1,P
1510868075.6,286046997.1,N
1510868095.4,286046995.1,N
1510868115.2,286046993.6,N
1510868135.0,286046999.0,N
1510868135.9,286046999.0,N
1510868155.8,286046997.1,N
1510868175.6,286046994.5,N
1510868195.4,286046990.1,N
1510868215.3,286046990.2,N
1510868235.1,286046989.7,N
1510868255.8,286046985.1,N
1510868275.7,286046981.5,N
1510868295.5,286046982.1,N
1510868315.3,286046979.3,N
1510868335.2,286046978.4,N
1510868355.9,286046978.7,N
1510868375.7,286046978.7,N
1510868395.6,286046980.3,N
1510868415.4,286046976.2,N
1510868435.2,286046981.9,N
1510868455.0,286046978.9,N
1510868455.9,286046978.9,N
1510868475.8,286046977.0,N
1510868495.6,286046975.9,N
1510868515.4,286046971.8,N
1510868535.3,286046967.4,Y
1510868555.1,286046976.4,P
1510868575.8,286046977.7,P
1510868595.7,286046976.2,P
1510868615.5,286046979.3,Y
1510868635.3,286047002.2,P
1510868655.2,286046996.2,N
1510868675.9,286046991.4,N
1510868695.7,286046990.7,N
1510868715.6,286046994.5,N
1510868735.4,286046994.6,N
1510868755.2,286046994.9,N
1510868775.1,286046995.7,N
1510868776.0,286046995.7,N
1510868795.8,286046997.3,N
1510868815.6,286046997.0,N
1510868835.4,286047008.1,N
1510868855.3,286047005.9,N
1510868875.1,286047004.5,N
1510868895.8,286047009.4,N
1510868915.7,286047006.3,N
1510868935.5,286047006.9,N
1510868955.3,286047007.3,N
1510868975.2,286047005.0,N
1510868995.9,286047003.9,N
1510869015.7,286047003.2,N
1510869035.6,286047001.7,N
1510869055.4,286047001.1,N
1510869075.2,286046993.9,N
1510869095.1,286046991.7,N
1510869096.0,286046991.7,N
1510869115.8,286046989.0,N
1510869135.6,286046988.4,N
1510869155.4,286046986.6,N
1510869175.3,286046985.9,N
1510869195.1,286046981.0,N
1510869215.8,286046986.2,N
1510869235.7,286046991.7,N
1510869255.5,286047001.1,N
1510869275.3,286046998.8,N
1510869295.2,286047003.8,N
1510869315.9,286047004.3,N
1510869335.7,286047008.3,N
1510869355.6,286047009.9,N
1510869375.4,286047015.5,N
1510869395.2,286047021.5,N
1510869415.1,286047017.8,N
1510869416.0,286047017.8,N
1510869435.8,286047015.7,N
1510869455.6,286047016.8,N
1510869475.4,286047023.4,N
1510869495.3,286047016.5,N
1510869515.1,286047013.8,N
1510869535.8,286047014.4,N
1510869555.7,286047013.4,N
1510869575.5,286047012.6,N
1510869595.3,286047018.6,N
